Weather History for Beaumont / Port Arthur, TX

Change the Weather History Date:

Wednesday, November 21, 2012

  Actual Average (KBPT) Record (KBPT)
Temperature  
Mean Temperature 63 °F 60 °F  
Max Temperature 82 °F 70 °F 85 °F (1909)
Min Temperature 44 °F 50 °F 30 °F (1937)
Degree Days  
Heating Degree Days 2 6  
Month to date heating degree days 91  
Since 1 July heating degree days 125  
Cooling Degree Days 0 2  
Month to date cooling degree days 54  
Year to date cooling degree days 2845  
Growing Degree Days 13 (Base 50)    
Moisture  
Dew Point 47 °F    
Average Humidity 70    
Maximum Humidity 100    
Minimum Humidity 23    
Precipitation  
Precipitation 0.00 in 0.13 in 6.87 in (1902)
Month to date precipitation 3.08  
Year to date precipitation 53.86  
Snow  
Snow 0.00 in 0.00 in 0.00 in ()
Month to date snowfall 0.0  
Since 1 July snowfall 0.0  
Since 1 September snowfall 0.0  
Snow Depth -    
Sea Level Pressure  
Sea Level Pressure 30.20 in    
Wind  
Wind Speed 2 mph (North)    
Max Wind Speed 10 mph    
Max Gust Speed 16 mph    
Visibility 7 miles    
Events Fog    
T = Trace of Precipitation, MM = Missing Value Source: NWS Daily Summary

Daily Weather History Graph

Daily Weather History Graph

Search for Another Location

Airport:

Trip Planner

Search our weather history database for the weather conditions in past years. The results will help you decide how hot, cold, wet, or windy it might be!

Date:

Astronomy

Nov. 21, 2012 Rise Set
Actual Time 6:47 AM CST 5:18 PM CST
Civil Twilight 6:21 AM CST 5:43 PM CST
Nautical Twilight 5:52 AM CST 6:12 PM CST
Astronomical Twilight 5:23 AM CST 6:41 PM CST
Moon 1:11 PM CST (11/21) 12:33 AM CST (11/21)
Length of Visible Light 11h 21m
Length of Day
10h 30m
First Quarter, 62% of the Moon is Illuminated
Nov 21
First Quarter
Nov 28
Full
Dec 6
Last Quarter
Dec 13
New
Dec 19
First Quarter

Hourly Weather History & Observations

Time (CST) Temp. Dew Point Humidity Pressure Visibility Wind Dir Wind Speed Gust Speed Precip Events Conditions
12:15 AM 50.0 °F 50.0 °F 100% 30.20 in 0.5 mi Calm Calm - N/A Fog Fog
12:35 AM 50.0 °F 50.0 °F 100% 30.20 in 4.0 mi Calm Calm - N/A   Clear
12:55 AM 50.0 °F 50.0 °F 100% 30.20 in 3.0 mi Calm Calm - N/A   Clear
1:15 AM 50.0 °F 50.0 °F 100% 30.19 in 4.0 mi Calm Calm - N/A   Clear
1:35 AM 46.4 °F 46.4 °F 100% 30.19 in 1.8 mi Calm Calm - N/A   Mostly Cloudy
1:55 AM 48.2 °F 48.2 °F 100% 30.19 in 4.0 mi Calm Calm - N/A   Mostly Cloudy
2:15 AM 48.2 °F 48.2 °F 100% 30.20 in 0.8 mi Calm Calm - N/A   Mostly Cloudy
2:35 AM 46.4 °F 46.4 °F 100% 30.20 in 7.0 mi Calm Calm - N/A   Scattered Clouds
2:55 AM 46.4 °F 46.4 °F 100% 30.20 in 5.0 mi Calm Calm - N/A   Scattered Clouds
3:15 AM 46.4 °F 46.4 °F 100% 30.20 in 0.5 mi Calm Calm - N/A Fog Fog
3:35 AM 46.4 °F 46.4 °F 100% 30.20 in 0.2 mi Calm Calm - N/A Fog Fog
3:55 AM 46.4 °F 46.4 °F 100% 30.21 in 0.2 mi Calm Calm - N/A Fog Fog
4:15 AM 44.6 °F 44.6 °F 100% 30.20 in 0.2 mi Calm Calm - N/A Fog Fog
4:35 AM 46.4 °F 46.4 °F 100% 30.21 in 0.2 mi Calm Calm - N/A Fog Fog
4:55 AM 46.4 °F 46.4 °F 100% 30.21 in 0.2 mi Calm Calm - N/A Fog Fog
5:15 AM 46.4 °F 46.4 °F 100% 30.21 in 0.5 mi Calm Calm - N/A Fog Fog
5:35 AM 44.6 °F 44.6 °F 100% 30.21 in 0.2 mi Calm Calm - N/A Fog Fog
5:55 AM 44.6 °F 44.6 °F 100% 30.21 in 0.2 mi Calm Calm - N/A Fog Fog
6:15 AM 46.4 °F 46.4 °F 100% 30.22 in 0.2 mi Calm Calm - N/A Fog Fog
6:35 AM 46.4 °F 46.4 °F 100% 30.23 in 0.2 mi Calm Calm - N/A Fog Fog
6:55 AM 44.6 °F 44.6 °F 100% 30.23 in 0.2 mi Calm Calm - N/A Fog Fog
7:15 AM 46.4 °F 46.4 °F 100% 30.24 in 0.2 mi Calm Calm - N/A Fog Fog
7:35 AM 46.4 °F 46.4 °F 100% 30.25 in 0.2 mi Calm Calm - N/A Fog Fog
7:55 AM 51.8 °F 51.8 °F 100% 30.26 in 2.5 mi Calm Calm - N/A   Clear
8:15 AM 55.4 °F 55.4 °F 100% 30.26 in 4.0 mi NNW 4.6 mph - N/A   Clear
8:35 AM 60.8 °F 60.8 °F 100% 30.26 in 7.0 mi NNW 4.6 mph - N/A   Clear
8:55 AM 62.6 °F 59.0 °F 88% 30.26 in 10.0 mi North 5.8 mph - N/A   Clear
9:15 AM 68.0 °F 59.0 °F 73% 30.26 in 10.0 mi North 6.9 mph - N/A   Clear
9:35 AM 69.8 °F 57.2 °F 64% 30.27 in 10.0 mi NNW 9.2 mph - N/A   Clear
9:55 AM 73.4 °F 57.2 °F 57% 30.27 in 10.0 mi NNW 9.2 mph - N/A   Clear
10:15 AM 73.4 °F 57.2 °F 57% 30.26 in 10.0 mi NNW 10.4 mph - N/A   Clear
10:35 AM 77.0 °F 57.2 °F 50% 30.26 in 10.0 mi NNW 10.4 mph - N/A   Clear
10:55 AM 77.0 °F 57.2 °F 50% 30.25 in 10.0 mi North 6.9 mph - N/A   Clear
11:15 AM 78.8 °F 55.4 °F 44% 30.25 in 10.0 mi North 9.2 mph 16.1 mph N/A   Clear
11:35 AM 78.8 °F 51.8 °F 39% 30.24 in 10.0 mi North 6.9 mph - N/A   Clear
11:55 AM 78.8 °F 51.8 °F 39% 30.23 in 10.0 mi North 5.8 mph - N/A   Clear
12:15 PM 78.8 °F 50.0 °F 36% 30.22 in 10.0 mi North 3.5 mph - N/A   Clear
12:35 PM 80.6 °F 50.0 °F 34% 30.20 in 10.0 mi Calm Calm - N/A   Clear
12:55 PM 80.6 °F 48.2 °F 32% 30.19 in 10.0 mi NE 8.1 mph - N/A   Clear
1:15 PM 82.4 °F 42.8 °F 25% 30.18 in 10.0 mi NNE 6.9 mph - N/A   Clear
1:35 PM 80.6 °F 41.0 °F 24% 30.18 in 10.0 mi North 8.1 mph - N/A   Clear
1:55 PM 80.6 °F 41.0 °F 24% 30.17 in 10.0 mi NNW 5.8 mph - N/A   Clear
2:15 PM 80.6 °F 41.0 °F 24% 30.16 in 10.0 mi Calm Calm - N/A   Clear
2:35 PM 80.6 °F 39.2 °F 23% 30.16 in 10.0 mi Calm Calm - N/A   Clear
2:55 PM 80.6 °F 42.8 °F 26% 30.15 in 10.0 mi NNE 3.5 mph - N/A   Clear
3:15 PM 78.8 °F 42.8 °F 28% 30.15 in 10.0 mi NNE 8.1 mph - N/A   Clear
3:35 PM 78.8 °F 42.8 °F 28% 30.15 in 10.0 mi NNE 4.6 mph - N/A   Clear
3:55 PM 78.8 °F 44.6 °F 30% 30.15 in 10.0 mi North 9.2 mph - N/A   Clear
4:15 PM 78.8 °F 42.8 °F 28% 30.15 in 10.0 mi North 6.9 mph - N/A   Clear
4:35 PM 78.8 °F 39.2 °F 24% 30.15 in 10.0 mi North 6.9 mph - N/A   Clear
4:55 PM 77.0 °F 41.0 °F 28% 30.16 in 10.0 mi NNE 4.6 mph - N/A   Clear
5:15 PM 73.4 °F 42.8 °F 33% 30.16 in 10.0 mi NNE 4.6 mph - N/A   Clear
5:35 PM 71.6 °F 42.8 °F 35% 30.16 in 10.0 mi Calm Calm - N/A   Clear
5:55 PM 66.2 °F 44.6 °F 46% 30.16 in 10.0 mi Calm Calm - N/A   Clear
6:15 PM 62.6 °F 46.4 °F 55% 30.17 in 10.0 mi Calm Calm - N/A   Clear
6:35 PM 60.8 °F 46.4 °F 59% 30.17 in 10.0 mi Calm Calm - N/A   Clear
6:55 PM 59.0 °F 46.4 °F 63% 30.18 in 10.0 mi Calm Calm - N/A   Clear
7:15 PM 57.2 °F 46.4 °F 67% 30.19 in 10.0 mi Calm Calm - N/A   Clear
7:35 PM 59.0 °F 44.6 °F 59% 30.19 in 10.0 mi Calm Calm - N/A   Clear
7:55 PM 55.4 °F 46.4 °F 72% 30.18 in 10.0 mi Calm Calm - N/A   Clear
8:15 PM 55.4 °F 46.4 °F 72% 30.19 in 10.0 mi Calm Calm - N/A   Clear
8:35 PM 55.4 °F 46.4 °F 72% 30.20 in 10.0 mi Calm Calm - N/A   Clear
8:55 PM 51.8 °F 44.6 °F 76% 30.20 in 10.0 mi SSW 3.5 mph - N/A   Clear
9:15 PM 53.6 °F 46.4 °F 77% 30.21 in 10.0 mi Calm Calm - N/A   Clear
9:35 PM 53.6 °F 46.4 °F 77% 30.21 in 10.0 mi Calm Calm - N/A   Clear
9:55 PM 51.8 °F 46.4 °F 82% 30.21 in 10.0 mi Calm Calm - N/A   Clear
10:15 PM 51.8 °F 46.4 °F 82% 30.21 in 10.0 mi Calm Calm - N/A   Clear
10:35 PM 50.0 °F 46.4 °F 87% 30.21 in 10.0 mi Calm Calm - N/A   Clear
10:55 PM 50.0 °F 46.4 °F 87% 30.21 in 10.0 mi Calm Calm - N/A   Clear
11:15 PM 50.0 °F 44.6 °F 82% 30.20 in 10.0 mi Calm Calm - N/A   Clear
11:35 PM 48.2 °F 44.6 °F 87% 30.20 in 10.0 mi Calm Calm - N/A   Clear
11:55 PM 48.2 °F 44.6 °F 87% 30.19 in 10.0 mi Calm Calm - N/A   Clear